Home   Weather   Peristeri   Past weeks

Flag for Greece Past Weather in Peristeri, Greece — Yesterday and Last 2 Weeks

Now
63 °F

Passing clouds.


Feels Like: 63 °F
Forecast: 46 / 64 °F
Wind: 3 mph from North

Location: Elefsis Airport

Current Time: Dec 11, 2016 at 1:59:08 pm

Latest Report: Dec 11, 2016 at 1:20 pm


Visibility: N/A

Pressure: 30.09 "Hg

Humidity: 52%

Dew Point: 45 °F

Location of PeristeriLocation

Past Weather in Peristeri — Graph

°F

Peristeri Temperature Yesterday

Maximum temperature yesterday: 64 °F (at 2:50 pm)
Minimum temperature yesterday: 37 °F (at 5:50 am)
Average temperature yesterday: 49 °F

High & Low Weather Summary for the Past Weeks

 TemperatureHumidityPressure
High66 °F (Nov 27, 9:50 am)94% (Nov 27, 1:20 am)30.66 "Hg (Nov 27, 1:20 am)
Low36 °F (Dec 9, 2:50 am)30% (Dec 1, 1:50 pm)27.05 "Hg (Dec 9, 6:50 pm)
Average51 °F68%30.17 "Hg
* Reported Nov 26 12:20 pm — Dec 11 12:20 pm, Peristeri, Weather by CustomWeather, © 2016

Note: Actual official high and low records may vary slightly from our data, if they occured in-between our weather recording intervals... More about our weather records

Advertising

Peristeri Weather History for the Previous 24 Hours

Scroll right to see more
 ConditionsComfort  
Time TempWeatherWind HumidityBarometerVisibility
12:20 pm
Sun, Dec 11
63 °FPassing clouds.No wind49%30.12 "HgN/A
11:50 am63 °FPassing clouds.No wind42%30.12 "HgN/A
11:20 am61 °FPassing clouds.No wind42%30.15 "HgN/A
10:50 am59 °FPassing clouds.No wind42%30.15 "HgN/A
10:20 am57 °FPassing clouds.No wind41%30.18 "HgN/A
9:50 am55 °FPassing clouds.No wind51%30.18 "HgN/A
9:20 am52 °FPassing clouds.No wind58%30.18 "HgN/A
8:50 am48 °FPassing clouds.3 mph66%30.18 "HgN/A
8:20 am43 °FPassing clouds.No wind76%30.18 "HgN/A
7:50 am41 °FPassing clouds.3 mph76%30.18 "HgN/A
7:20 am39 °FPassing clouds.3 mph75%30.18 "HgN/A
6:50 am41 °FClear.5 mph70%30.18 "Hg10 mi
6:20 am43 °FClear.5 mph66%30.18 "Hg10 mi
5:50 am41 °FClear.5 mph70%30.18 "Hg10 mi
5:20 am43 °FClear.5 mph66%30.18 "Hg10 mi
4:50 am43 °FClear.5 mph66%30.18 "Hg10 mi
3:50 am43 °FClear.6 mph66%30.18 "Hg10 mi
3:20 am45 °FClear.No wind61%30.21 "Hg10 mi
2:50 am43 °FClear.6 mph66%30.21 "Hg10 mi
2:20 am45 °FClear.No wind61%30.21 "Hg10 mi
1:50 am41 °FClear.6 mph70%30.21 "Hg10 mi
1:20 am45 °FClear.5 mph57%30.21 "Hg10 mi
12:50 am45 °FClear.5 mph57%30.21 "Hg10 mi
12:20 am46 °FClear.5 mph50%30.24 "Hg10 mi
11:50 pm
Sat, Dec 10
45 °FClear.5 mph57%30.24 "Hg10 mi
11:20 pm46 °FClear.5 mph50%30.24 "Hg10 mi
10:50 pm43 °FClear.3 mph66%30.24 "Hg10 mi
10:20 pm48 °FClear.5 mph50%30.24 "Hg10 mi
9:50 pm48 °FClear.5 mph46%30.24 "Hg10 mi
9:20 pm46 °FClear.5 mph53%30.24 "Hg10 mi
8:50 pm48 °FClear.7 mph50%30.24 "Hg10 mi
8:20 pm46 °FClear.7 mph57%30.24 "Hg10 mi
7:50 pm46 °FClear.7 mph57%30.24 "Hg10 mi
7:20 pm48 °FClear.3 mph50%30.21 "Hg10 mi
6:50 pm52 °FClear.7 mph50%30.21 "Hg10 mi
6:20 pm50 °FClear.6 mph67%30.21 "Hg10 mi
5:50 pm52 °FClear.5 mph72%30.21 "Hg10 mi
5:20 pm57 °FClear.No wind63%30.21 "Hg10 mi
4:50 pm61 °FSunny.No wind55%30.21 "Hg10 mi
4:20 pm63 °FSunny.5 mph49%30.21 "Hg10 mi
3:50 pm63 °FSunny.8 mph49%30.21 "Hg10 mi
3:20 pm63 °FSunny.8 mph49%30.21 "Hg10 mi
2:50 pm64 °FSunny.7 mph52%30.18 "Hg10 mi
2:20 pm63 °FSunny.6 mph56%30.21 "Hg10 mi
1:50 pm63 °FSunny.6 mph56%30.21 "Hg10 mi
1:20 pm63 °FSunny.5 mph52%30.21 "Hg10 mi
Weather by CustomWeather, © 2016

See weather overviewHow to use our weather pages